sat.trackr.live / text

‹ back to catalog

STARLINK-4216

NORAD 53022 · 2022-076AN

PAYLOAD ACTIVE UNKNOWN

§ Identity

Operator
Country
US
Launch date
2022-07-07
Launch site
AFETR
Launch vehicle
Mass (kg)
RCS (m²)

Purposes: comms

External: N2YO · Heavens-Above · Gunter

§ Orbital elements

Epoch: 2026-05-25T02:53:14.790048Z

Period
95.44 min
Inclination
53.2141°
Eccentricity
0.0001569
Mean motion
15.08836557 rev/d
Perigee alt
538.7 km
Apogee alt
540.8 km
Semi-major
6,917.9 km
B*
4.9516e-5
RAAN
101.0045°
Arg perigee
75.6864°
Mean anomaly
284.4302°
Rev number
21,452

§ Raw data

STARLINK-42161 53022U 22076AN  26145.12031007  .00000500  00000+0  49516-4 0  99942 53022  53.2141 101.0045 0001569  75.6864 284.4302 15.08836557214523

JSON: /api/v1/satellites/53022 · /tle

For live sub-satellite position, see the globe view (requires WebGL).

§ Visibility from observer

Set your observer location to see the next 7 days of passes ≥ 10°. The values pass through the URL so the page stays shareable.

No JS? Fill the form by hand. The geolocation button needs JavaScript.